Location: Newark
(37.9800°N, 91.3000°W)
Time: 17:41:22
(UTC+00:00)

ISS - Visible Passes

Search period start: 21 October 2019 00:00
Search period end: 31 October 2019 00:00
Orbit: 411 x 421 km, 51.6° (Epoch: 21 October)

Date Brightness Start Highest point End Pass type
(mag) Time Alt. Az. Time Alt. Az. Time Alt. Az.
21 Oct -0.7 11:47:02 10° S 11:49:16 17° SE 11:51:30 10° E visible
23 Oct -2.9 11:45:20 10° SSW 11:48:37 51° SE 11:51:53 10° ENE visible
24 Oct -1.7 10:57:13 10° SSW 11:00:07 27° SE 11:03:02 10° ENE visible
25 Oct -1.0 10:11:21 15° SE 10:11:40 15° SE 10:13:43 10° E visible
25 Oct -3.5 11:44:49 10° WSW 11:48:06 50° NW 11:51:24 10° NE visible
26 Oct -3.9 10:58:30 43° SW 10:59:29 89° SE 11:02:51 10° NE visible
27 Oct -1.5 10:12:29 25° ENE 10:12:29 25° ENE 10:14:09 10° ENE visible
27 Oct -2.2 11:45:24 12° WNW 11:47:47 22° NNW 11:50:30 10° NNE visible
28 Oct -2.8 10:59:13 32° NNW 10:59:13 32° NNW 11:02:07 10° NE visible
29 Oct -1.0 10:12:52 16° NE 10:12:52 16° NE 10:13:38 10° NE visible
29 Oct -1.5 11:46:01 10° NW 11:47:37 13° NNW 11:49:14 10° N visible
30 Oct -1.6 10:59:20 16° N 10:59:20 16° N 11:01:01 10° NNE visible
